Location: Marcé
(47.5801°N, 0.3280°W)
Time: 19:30:46
(UTC+01:00)

Courier 1B - Pass Details

Date: 07 December 2021
Orbit: 962 x 1209 km, 28.3° (Epoch: 21 January)

Event Time Altitude Azimuth Distance (km) Brightness Sun altitude
Rises 19:25:05 0° 244° (WSW) 4,017 12.0 -21.8°
Reaches altitude 10° 19:29:36 10° 220° (SW) 3,003 10.7 -22.6°
Maximum altitude 19:33:00 14° 193° (SSW) 2,687 10.0 -23.1°
Drops below altitude 10° 19:36:18 10° 165° (SSE) 2,914 9.9 -23.7°
Enters shadow 19:38:33 - 150° (SSE) 3,325 10.1 -24.1°
